Location: Invercargill
(46.4000°S, 168.3500°E)
Time: 03:42:20
(UTC+12:00)

Vanguard 2 - All Passes

Search period start: 18 July 2019 00:00
Search period end: 28 July 2019 00:00
Orbit: 553 x 2938 km, 32.9° (Epoch: 16 July)

Date Brightness Start Highest point End Pass type
(mag) Time Alt. Az. Time Alt. Az. Time Alt. Az.
18 Jul - 11:24:42 10° N 11:29:27 17° NE 11:35:38 10° ENE daylight
18 Jul - 13:29:08 10° NW 13:37:10 38° NNE 13:49:29 10° ENE daylight
18 Jul - 15:36:22 10° WNW 15:46:42 43° N 16:01:39 10° ENE daylight
18 Jul - 17:45:32 10° W 17:57:03 32° NNW 18:11:20 10° NNE visible
18 Jul - 19:59:41 10° WNW 20:06:55 14° NW 20:14:32 10° NNW visible
19 Jul - 11:41:17 10° NNW 11:46:45 22° NNE 11:54:20 10° ENE daylight
19 Jul - 13:46:40 10° NW 13:54:50 40° N 14:07:27 10° ENE daylight
19 Jul - 15:54:14 10° WNW 16:04:30 40° N 16:19:09 10° NE daylight
19 Jul - 18:03:58 10° WNW 18:14:44 27° NNW 18:27:46 10° NNE visible
20 Jul - 11:58:17 10° NNW 12:04:10 26° NNE 12:12:42 10° ENE daylight
20 Jul - 14:04:18 10° WNW 14:12:33 40° N 14:25:19 10° ENE daylight
20 Jul - 16:12:12 10° WNW 16:22:18 36° NNW 16:36:25 10° NE daylight
20 Jul - 18:22:49 10° WNW 18:32:23 21° NNW 18:43:38 10° N visible
21 Jul - 12:15:32 10° NW 12:21:41 30° NNE 12:30:53 10° ENE daylight
21 Jul - 14:22:02 10° WNW 14:30:19 39° N 14:43:03 10° ENE daylight
21 Jul - 16:30:19 10° WNW 16:40:05 32° NNW 16:53:25 10° NE daylight
21 Jul - 18:42:27 10° WNW 18:50:00 16° NW 18:58:31 10° N visible
22 Jul - 10:28:55 10° N 10:31:58 14° NE 10:35:37 10° ENE daylight
22 Jul - 12:32:57 10° NW 12:39:16 33° NNE 12:48:55 10° ENE daylight
22 Jul - 14:39:51 10° WNW 14:48:06 37° N 15:00:39 10° NE daylight
22 Jul - 16:48:38 10° WNW 16:57:52 27° NNW 17:10:02 10° NNE daylight
22 Jul - 19:04:54 10° NW 19:07:36 11° NW 19:10:25 10° NNW visible
23 Jul - 10:45:24 10° N 10:49:19 18° NNE 10:54:26 10° ENE daylight
23 Jul - 12:50:31 10° NW 12:56:56 34° N 13:06:50 10° ENE daylight
23 Jul - 14:57:45 10° WNW 15:05:55 34° N 15:18:02 10° NE daylight
23 Jul - 17:07:18 10° WNW 17:15:38 21° NNW 17:26:08 10° NNE daylight
24 Jul - 11:02:23 10° NNW 11:06:47 21° NNE 11:12:49 10° ENE daylight
24 Jul - 13:08:11 10° WNW 13:14:39 34° N 13:24:38 10° ENE daylight
24 Jul - 15:15:48 10° WNW 15:23:44 30° NNW 15:35:09 10° NE daylight
24 Jul - 17:26:38 10° WNW 17:33:22 16° NNW 17:41:23 10° N daylight
25 Jul - 11:19:39 10° NW 11:24:19 24° NNE 11:30:57 10° ENE daylight
25 Jul - 13:25:57 10° WNW 13:32:25 32° N 13:42:17 10° NE daylight
25 Jul - 15:34:03 10° WNW 15:41:33 25° NNW 15:51:56 10° NNE daylight
25 Jul - 17:48:05 10° NW 17:51:05 11° NW 17:54:19 10° NNW visible
26 Jul - 09:33:57 10° NNE 09:34:49 10° NNE 09:35:44 10° NE daylight
26 Jul - 11:37:06 10° NW 11:41:56 26° NNE 11:48:56 10° ENE daylight
26 Jul - 13:43:49 10° WNW 13:50:13 30° N 13:59:46 10° NE daylight
26 Jul - 15:52:37 10° WNW 15:59:22 20° NNW 16:08:13 10° NNE daylight
27 Jul - 09:49:44 10° N 09:52:16 14° NNE 09:55:14 10° ENE daylight
27 Jul - 11:54:42 10° NW 11:59:37 27° N 12:06:46 10° ENE daylight
27 Jul - 14:01:50 10° WNW 14:08:01 26° N 14:16:59 10° NE daylight
27 Jul - 16:11:50 10° NW 16:17:10 15° NNW 16:23:40 10° N daylight
